EW4036 Weather Reports


Display with metric or nautical units.
time (UTC)temp
F
wind
direction
speed
MPH
gust
MPH
rain 1hr
in
rain 24hr
in
rain mn
in
humidity
%
barometer
mb
20260904110110 58 198 9.0 14.0 0.00 0.13 0.13 93 995.9
20260904104508 58 214 6.0 14.0 0.00 0.13 0.13 94 996.1
20260904103012 57 227 9.0 15.0 0.00 0.13 0.13 95 996.3
20260904101618 57 234 10.0 16.0 0.00 0.13 0.13 96 996.5
20260904100010 56 227 10.0 15.0 0.00 0.13 0.13 97 996.4
20260904094605 56 204 9.0 13.0 0.00 0.13 0.13 98 996.8
20260904093011 56 217 10.0 17.0 0.01 0.13 0.13 97 996.7
20260904091506 56 220 8.0 12.0 0.02 0.13 0.13 98 996.6
20260904090008 56 214 5.0 14.0 0.04 0.13 0.13 98 996.7
20260904084518 55 207 7.0 10.0 0.06 0.13 0.13 98 996.8
20260904083105 55 186 6.0 9.0 0.06 0.13 0.13 98 996.9
20260904081606 55 195 5.0 9.0 0.06 0.11 0.11 98 997.1
20260904080012 55 200 6.0 12.0 0.06 0.09 0.09 98 997.1
20260904074513 56 186 7.0 10.0 0.05 0.08 0.08 98 997.1
20260904073107 55 153 3.0 7.0 0.03 0.06 0.06 98 997.3
20260904071508 55 85 4.0 7.0 0.02 0.06 0.06 98 997.5
20260904070030 55 111 3.0 7.0 0.01 0.03 0.03 98 997.6
20260904064605 55 68 2.0 5.0 0.01 0.03 0.03 98 997.7
20260904063012 55 90 4.0 7.0 0.02 0.03 0.03 97 997.7
20260904061509 55 78 1.0 5.0 0.02 0.03 0.03 97 997.9
20260904060011 54 90 3.0 6.0 0.02 0.02 0.02 97 998.1
20260904054506 54 76 2.0 7.0 0.02 0.02 0.02 97 998.4
20260904053006 54 71 1.0 3.0 0.01 0.02 0.02 97 998.5
20260904051509 54 113 0.0 4.0 0.00 0.01 0.01 97 998.5
20260904050015 54 68 0.0 2.0 0.00 0.01 0.01 96 998.8
20260904044505 54 107 0.0 0.0 0.00 0.01 0.01 96 998.9
20260904043105 54 111 0.0 0.0 0.01 0.01 0.01 96 998.8
20260904041508 54 90 0.0 0.0 0.01 0.01 0.01 96 998.7
20260904040011 54 103 0.0 0.0 0.01 0.01 0.01 96 999.0
20260904034608 53 136 0.0 0.0 0.01 0.01 0.01 96 999.3
20260904033012 53 103 0.0 0.0 0.00 0.00 0.00 96 999.4
20260904031511 53 103 0.0 0.0 0.00 0.00 0.00 96 999.6
20260904030006 53 103 0.0 2.0 0.00 0.00 0.00 95 999.8
20260904024506 53 107 0.0 0.0 0.00 0.00 0.00 95 999.8
20260904023010 52 107 0.0 0.0 0.00 0.00 0.00 95 1000.0
20260904021605 52 132 0.0 0.0 0.00 0.00 0.00 95 1000.4
20260904020009 52 126 0.0 2.0 0.00 0.00 0.00 95 1000.2
20260904014506 52 126 2.0 3.0 0.00 0.00 0.00 94 1000.2
20260904013009 53 123 1.0 3.0 0.00 0.00 0.00 94 1000.4
20260904011532 52 103 2.0 3.0 0.00 0.00 0.00 94 1000.4
20260904010012 52 157 0.0 3.0 0.00 0.00 0.00 94 1000.7
20260904004506 52 152 0.0 2.0 0.00 0.00 0.00 93 1000.9
20260904003008 53 49 0.0 2.0 0.00 0.00 0.00 93 1001.0
20260904001605 52 180 0.0 1.0 0.00 0.00 0.00 92 1001.3
20260904000011 52 180 0.0 1.0 0.00 0.00 0.00 92 1001.4
20260903234605 52 190 2.0 4.0 0.00 0.00 0.00 92 1001.5
20260903233017 52 99 1.0 3.0 0.00 0.00 0.00 92 1001.6
20260903231605 53 105 0.0 0.0 0.00 0.00 0.00 92 1001.7
20260903230012 53 49 0.0 0.0 0.00 0.00 0.00 91 1001.8
20260903224508 53 42 0.0 0.0 0.00 0.00 0.00 91 1001.9
20260903223013 53 42 0.0 2.0 0.00 0.00 0.00 91 1002.0
20260903221605 53 93 0.0 2.0 0.00 0.00 0.00 92 1002.1
20260903220012 52 91 0.0 3.0 0.00 0.00 0.00 92 1002.1
20260903214508 52 93 1.0 3.0 0.00 0.00 0.00 92 1002.2
20260903213007 52 52 0.0 0.0 0.00 0.00 0.00 91 1002.5
20260903210110 53 78 0.0 2.0 0.00 0.00 0.00 90 1002.6
20260903204608 53 107 0.0 3.0 0.00 0.00 0.00 89 1002.7
20260903203024 53 102 0.0 2.0 0.00 0.00 0.00 89 1002.6
20260903201506 53 102 1.0 2.0 0.00 0.00 0.00 89 1002.6
20260903200008 53 104 1.0 3.0 0.00 0.00 0.00 88 1002.8
20260903194508 53 90 0.0 2.0 0.00 0.00 0.00 87 1002.9
20260903193108 54 42 0.0 1.0 0.00 0.00 0.00 85 1002.9
20260903191505 55 42 0.0 0.0 0.00 0.00 0.00 84 1002.9
20260903190006 56 42 0.0 0.0 0.00 0.00 0.00 81 1003.1
20260903184507 57 42 0.0 0.0 0.00 0.00 0.00 80 1003.1
20260903183009 57 42 1.0 3.0 0.00 0.00 0.00 79 1003.3
20260903181511 58 355 1.0 2.0 0.00 0.00 0.00 77 1003.4
20260903180018 59 311 0.0 1.0 0.00 0.00 0.00 75 1003.5
20260903174507 59 311 0.0 1.0 0.00 0.00 0.00 74 1003.5
20260903173009 60 311 0.0 1.0 0.00 0.00 0.00 74 1003.5
20260903171506 60 311 1.0 2.0 0.00 0.00 0.00 74 1003.6
20260903170016 60 293 0.0 2.0 0.00 0.00 0.00 73 1003.7
20260903164509 60 291 3.0 6.0 0.00 0.00 0.00 71 1003.7
20260903163013 60 301 2.0 5.0 0.00 0.00 0.00 71 1003.7
20260903161506 61 279 2.0 5.0 0.00 0.00 0.00 70 1003.9
20260903160008 61 327 3.0 5.0 0.00 0.00 0.00 69 1004.0
20260903154508 61 295 2.0 5.0 0.00 0.00 0.00 69 1004.1
20260903153011 62 303 3.0 7.0 0.00 0.00 0.00 65 1004.2
20260903151507 63 297 3.0 7.0 0.00 0.00 0.00 62 1004.3
20260903150012 63 313 4.0 9.0 0.00 0.00 0.00 61 1004.4
20260903144531 63 319 4.0 9.0 0.00 0.00 0.00 61 1004.5
20260903143010 63 269 5.0 10.0 0.00 0.00 0.00 60 1004.6
20260903141506 63 281 4.0 11.0 0.00 0.00 0.00 55 1004.8
20260903140007 64 281 6.0 11.0 0.00 0.00 0.00 54 1004.8
20260903134507 64 231 7.0 14.0 0.00 0.00 0.00 56 1004.9
20260903133009 64 267 5.0 10.0 0.00 0.00 0.00 55 1005.0
20260903131505 63 247 7.0 13.0 0.00 0.00 0.00 58 1005.2
20260903130010 63 263 7.0 13.0 0.00 0.00 0.00 55 1005.2
20260903124621 63 215 8.0 16.0 0.00 0.00 0.00 53 1005.5
20260903123107 62 242 10.0 16.0 0.00 0.00 0.00 57 1005.6
20260903121615 62 266 10.0 17.0 0.00 0.00 0.00 56 1005.6
20260903120022 62 205 5.0 16.0 0.00 0.00 0.00 62 1005.6
20260903114506 62 254 9.0 14.0 0.00 0.00 0.00 61 1005.7
20260903113004 61 246 10.0 14.0 0.00 0.00 0.00 62 1006.0
20260903111509 60 236 6.0 13.0 0.00 0.00 0.00 66 1006.2